Location: ??????????
(54.7560°N, 39.1389°E)
Time: 14:51:11
(UTC+00:00)

Cosmos 1151 Rocket - Pass Details

Date: 19 May 2025
Orbit: 586 x 606 km, 82.5° (Epoch: 21 June)

Event Time Altitude Azimuth Distance (km) Brightness Sun altitude
Exits shadow 20:42:56 25° 152° (SSE) 1,210 4.0 -14.9°
Maximum altitude 20:45:01 45° 94° (E) 811 3.5 -14.9°
Drops below altitude 10° 20:49:04 10° 22° (NNE) 1,925 6.5 -15.0°
Sets 20:51:20 0° 16° (NNE) 2,831 7.8 -15.0°
